Weather in Progress

Russia / Novgorod Oblast     58°24′03″N   33°56′13″E
temp.,
°C
wind,
m/s
gust,
m/s
humid.,
%
clouds,
%
prec.,
mm/h
press.,
hPa
HPBL,
m
19 january, wed
wed1900:00−14w269982 0.0 101794
03:00−12sw2696100 0.0 1016116
06:00−10ssw389483 0.0 1014190
09:00−6sw31096100 0.6 1011382
12:00−4sw41196100 0.5 1010458
15:00−3sw41195100 0.9 1008628
18:00−2ssw41195100 0.1 1005483
21:00−1sw51396100 0.1 1002733
20 january, thu
thu2000:000sw51395100 0.0 1000765
03:000sw51293100 0.0 999683
06:00−1ssw41290100 0.0 996480
09:00−1s41390100 0.0 994481
12:000s51488100 0.0 994647
15:000s51592100 0.2 992885
18:00−1s61396100 0.4 9911063
21:00−1s51193100 0.9 991833
21 january, fri
fri2100:00−2s41092100 0.1 992691
03:00−4sse3895100 0.3 993220
06:00−6s3896100 0.0 994249
09:00−5sse4886100 0.1 996603
12:00−6se489195 0.1 997631
15:00−6ese499187 0.1 998470
18:00−7e3995100 0.0 1000253
21:00−6ene3895100 0.1 1001271
22 january, sat
sat2200:00−6ene3895100 0.9 1002534
03:00−7e499390 1.6 1004541
06:00−10ene4109285 0.1 1007388
09:00−10ne4993100 0.1 1010356
12:00−10ne4893100 0.1 1013360
15:00−9ene389394 0.1 1015353
18:00−12ne389677 0.0 1018171
21:00−14ene379774 0.0 1021120
23 january, sun
sun2300:00−17ene239871 0.0 102444
03:00−18ne2510095 0.0 102660
06:00−21ene2210098 0.0 102915
09:00−23ene11100100 0.0 10319
12:00−14ne019792 0.0 103263
15:00−11wnw119617 0.0 103327
18:00−19wnw1110071 0.0 10349
21:00−21wnw1110098 0.0 10359